Flag for Austria Weather past 2 weeks in Eisenstadt, Burgenland, Austria

Now
51 °F

Heavy rain. Overcast.


Feels Like: 49 °F
Forecast: 53 / 63 °F
Wind: 7 mph from Northwest

Location: Eisenstadt

Current Time: May 23, 2015 at 11:44:56 AM

Latest Report: May 23, 2015 at 11:00 AM


Visibility: 2 mi

Pressure: 29.94 "Hg

Humidity: 94%

Dew point: 50 °F

Location of EisenstadtLocation

Historic Weather in Eisenstadt — Graph

°F

Eisenstadt temperature yesterday

Maximum temperature yesterday: 55 °F (at 1:00 AM)
Minimum temperature yesterday: 53 °F (at 11:00 PM)
Average temperature yesterday: 54 °F

Past Weeks' High & Low Weather Summary

 TemperatureHumidityPressure
High78 °F (May 12, 4:00 PM)95% (May 16, 12:00 AM)30.39 "Hg (May 16, 12:00 AM)
Low46 °F (May 11, 6:00 AM)29% (May 12, 12:00 PM)29.73 "Hg (May 19, 6:00 AM)
Average60 °F67%30.03 "Hg
* Reported May 8 10:00 AM — May 23 10:00 AM, Eisenstadt, Weather by CustomWeather, © 2015

Note: Actual official high and low records may vary slightly from our data, if they occured in-between our weather recording intervals... More about our weather records

Advertising

Eisenstadt weather history for previous 24 hours

 ConditionsComfort  
Time TempWeatherWind HumidityBarometerVisibility
10:00 AM
Sat, May 23
51 °FFog.9 mph93%29.91 "HgN/A
9:00 AM51 °FFog.10 mph93%29.90 "HgN/A
8:00 AM51 °FHeavy rain. Overcast.8 mph92%29.92 "Hg3 mi
7:00 AM51 °FRain. Overcast.8 mph93%29.93 "Hg5 mi
6:00 AM51 °FRain. Overcast.7 mph93%29.94 "Hg5 mi
5:00 AM51 °FLight rain. Overcast.6 mph93%29.96 "Hg6 mi
4:00 AM52 °FLight rain. Overcast.7 mph93%29.96 "Hg6 mi
3:00 AM52 °FFog.8 mph92%29.96 "HgN/A
2:00 AM52 °FLight rain. Overcast.8 mph91%30.00 "Hg6 mi
1:00 AM53 °FCool.8 mph89%30.02 "HgN/A
12:00 AM53 °FSprinkles. Overcast.8 mph90%30.03 "HgN/A
11:00 PM
Fri, May 22
53 °FLight rain. Overcast.2 mph93%30.04 "Hg6 mi
10:00 PM53 °FFog.1 mph92%30.06 "HgN/A
9:00 PM53 °FFog.6 mph90%30.06 "HgN/A
8:00 PM53 °FRain. Overcast.7 mph89%30.07 "Hg6 mi
7:00 PM53 °FLight rain. Overcast.7 mph91%30.07 "Hg6 mi
6:00 PM53 °FFog.6 mph90%30.08 "HgN/A
5:00 PM54 °FLight rain. Overcast.6 mph89%30.09 "Hg7 mi
4:00 PM54 °FFog.5 mph90%30.11 "HgN/A
3:00 PM54 °FFog.5 mph90%30.11 "HgN/A
2:00 PM54 °FCool.3 mph90%30.14 "HgN/A
1:00 PM55 °FFog.3 mph86%30.14 "HgN/A
12:00 PM55 °FFog.5 mph82%30.14 "HgN/A
11:00 AM54 °FLight rain. Overcast.5 mph82%30.14 "Hg7 mi
Weather by CustomWeather, © 2015

See weather overviewHow to use our weather pages